Volver al catálogo

AE3VA

ActivoCienciaSSO
NORAD 64563·PAYLOAD·🇯🇵 Japan

Lanzado Jun 23, 2025 desde Vandenberg Space Force Base

Loading…

Próximos Pases (próximas 24 horas)

TLE

ActualizadoSource: Space-Track

Época: Sep 14, 2026, 13:19 UTC

1 64563U 25135AM  26257.55512723  .00004256  00000-0  36492-3 0  9996
2 64563  97.7766  11.9812 0002412  12.4816 347.6465 14.98057104 67312

Sigue AE3VA en tiempo real con AllMySat

Download on the App Store